Yuma, AZ

3:07 PM MST on January 17, 2017 (GMT -0700)
Yuma Marine Corps Air Station

Weather History for KNYL - July, 2013

Change the Weather History Date:

Saturday, July 20, 2013

  Actual Average Record
Temperature  
Mean Temperature 90 °F 95 °F  
Max Temperature 99 °F 107 °F 117 °F (1960)
Min Temperature 80 °F 83 °F 65 °F (1940)
Degree Days  
Heating Degree Days 0 0  
Month to date heating degree days 0 0  
Since 1 June heating degree days 0 0  
Since 1 July heating degree days 0 0  
Cooling Degree Days 25 30  
Month to date cooling degree days 623 584  
Year to date cooling degree days 2489 2217  
Since 1 June cooling degree days 1428 1305  
Growing Degree Days 39 (Base 50)    
Moisture  
Dew Point 69 °F    
Average Humidity 56    
Maximum Humidity 79    
Minimum Humidity 33    
Precipitation  
Precipitation T in 0.01 in 0.74 in (2008)
Month to date precipitation T 0.12  
Year to date precipitation 1.11 1.45  
Sea Level Pressure  
Sea Level Pressure 29.76 in    
Wind  
Wind Speed 9 mph (South)    
Max Wind Speed 18 mph    
Max Gust Speed 22 mph    
Visibility 10 miles    
Events Rain    
T = Trace of Precipitation, MM = Missing Value Source: NWS Daily Summary

Daily Weather History Graph

Daily Weather History Graph

Search for Another Location

Airport or City:

Trip Planner

Search our weather history database for the weather conditions in past years. The results will help you decide how hot, cold, wet, or windy it might be!

Date:

Astronomy

Jul. 20, 2013 Rise Set
Actual Time 5:44 AM MST 7:44 PM MST
Civil Twilight 5:17 AM MST 8:12 PM MST
Nautical Twilight 4:43 AM MST 8:45 PM MST
Astronomical Twilight 4:07 AM MST 9:21 PM MST
Moon 5:52 PM MST (7/20) 3:28 AM MST (7/20)
Length of Visible Light 14h 54m
Length of Day
13h 59m
Waxing Gibbous, 94% of the Moon is Illuminated
Jul 20
Waxing Gibbous
Jul 22
Full
Jul 29
Last Quarter
Aug 6
New
Aug 14
First Quarter

Hourly Weather History & Observations

Time (MST) Temp. Heat Index Dew Point Humidity Pressure Visibility Wind Dir Wind Speed Gust Speed Precip Events Conditions
12:57 AM 84.9 °F 88.8 °F 69.1 °F 59% 29.77 in 10.0 mi SSE 17.3 mph - N/A   Mostly Cloudy
1:57 AM 84.0 °F 89.0 °F 71.1 °F 65% 29.76 in 10.0 mi SSE 10.4 mph - N/A   Mostly Cloudy
2:57 AM 84.0 °F 90.2 °F 73.0 °F 69% 29.76 in 10.0 mi SSE 13.8 mph - N/A   Mostly Cloudy
3:57 AM 84.9 °F 90.1 °F 71.1 °F 63% 29.79 in 10.0 mi SSE 12.7 mph - N/A   Mostly Cloudy
4:57 AM 86.0 °F 90.1 °F 69.1 °F 57% 29.81 in 10.0 mi East 9.2 mph - 0.00 in Rain Light Rain
5:57 AM 82.0 °F 86.7 °F 72.0 °F 71% 29.82 in 10.0 mi ENE 15.0 mph - 0.00 in Rain Light Rain
6:57 AM 81.0 °F 85.8 °F 73.0 °F 77% 29.81 in 10.0 mi SE 8.1 mph - 0.00 in Rain Light Rain
7:57 AM 81.0 °F 86.2 °F 73.9 °F 79% 29.81 in 10.0 mi SE 6.9 mph - 0.00 in Rain Light Rain
8:57 AM 80.1 °F 83.8 °F 72.0 °F 76% 29.81 in 10.0 mi SSE 12.7 mph - 0.00 in   Mostly Cloudy
9:57 AM 82.0 °F 86.7 °F 72.0 °F 71% 29.82 in 10.0 mi South 4.6 mph - N/A   Mostly Cloudy
10:57 AM 84.0 °F 90.2 °F 73.0 °F 69% 29.83 in 10.0 mi South 6.9 mph - N/A   Mostly Cloudy
11:57 AM 88.0 °F 93.8 °F 71.1 °F 57% 29.82 in 10.0 mi SE 6.9 mph - N/A   Mostly Cloudy
12:57 PM 88.0 °F 91.4 °F 68.0 °F 51% 29.80 in 10.0 mi Calm Calm - N/A   Mostly Cloudy
1:57 PM 93.9 °F 98.6 °F 68.0 °F 43% 29.77 in 10.0 mi Variable 3.5 mph - N/A   Mostly Cloudy
2:57 PM 96.1 °F 99.3 °F 66.0 °F 37% 29.73 in 10.0 mi West 4.6 mph - N/A   Mostly Cloudy
3:57 PM 98.1 °F 101.8 °F 66.0 °F 35% 29.71 in 10.0 mi West 9.2 mph - N/A   Mostly Cloudy
4:57 PM 98.1 °F 101.2 °F 64.9 °F 34% 29.69 in 10.0 mi WSW 8.1 mph - N/A   Mostly Cloudy
5:57 PM 98.1 °F 101.2 °F 64.9 °F 34% 29.69 in 10.0 mi West 4.6 mph - N/A   Mostly Cloudy
6:57 PM 96.1 °F 99.3 °F 66.0 °F 37% 29.68 in 10.0 mi West 5.8 mph - N/A   Mostly Cloudy
7:57 PM 95.0 °F 99.5 °F 68.0 °F 41% 29.68 in 10.0 mi SSW 15.0 mph - N/A   Mostly Cloudy
8:57 PM 91.9 °F 95.4 °F 66.9 °F 44% 29.70 in 10.0 mi South 11.5 mph - N/A   Mostly Cloudy
9:57 PM 90.0 °F 92.4 °F 66.0 °F 45% 29.73 in 10.0 mi South 10.4 mph - N/A   Mostly Cloudy
10:57 PM 89.1 °F 91.0 °F 64.9 °F 45% 29.73 in 10.0 mi SSE 9.2 mph - N/A   Mostly Cloudy
11:57 PM 88.0 °F 89.6 °F 64.9 °F 46% 29.75 in 10.0 mi SSE 12.7 mph - N/A   Mostly Cloudy